FW1404 Weather Reports


Display with metric or nautical units.
time (UTC)temp
F
wind
direction
speed
MPH
gust
MPH
rain 1hr
in
rain 24hr
in
rain mn
in
humidity
%
barometer
mb
20260503022921 48 166 2.0 4.0 0.00 0.00 0.00 72 1014.5
20260503022419 48 167 3.0 4.0 0.00 0.00 0.00 72 1014.5
20260503021920 49 167 2.0 4.0 0.00 0.00 0.00 72 1014.5
20260503021422 49 167 2.0 4.0 0.00 0.00 0.00 72 1014.5
20260503020923 49 167 2.0 3.0 0.00 0.00 0.00 72 1014.6
20260503020422 49 167 2.0 3.0 0.00 0.00 0.00 71 1014.6
20260503015921 49 167 1.0 2.0 0.00 0.00 0.00 71 1014.7
20260503015421 49 167 1.0 2.0 0.00 0.00 0.00 70 1014.7
20260503014919 50 167 1.0 2.0 0.00 0.00 0.00 70 1014.7
20260503014420 50 167 1.0 2.0 0.00 0.00 0.00 69 1014.8
20260503013920 50 167 0.0 1.0 0.00 0.00 0.00 68 1014.8
20260503013420 51 167 0.0 2.0 0.00 0.00 0.00 68 1014.8
20260503013211 51 167 0.0 2.0 0.00 0.00 0.00 67 1014.8
20260503012420 51 167 1.0 2.0 0.00 0.00 0.00 66 1014.9
20260503011920 52 167 1.0 2.0 0.00 0.00 0.00 66 1014.8
20260503011419 52 167 1.0 2.0 0.00 0.00 0.00 65 1014.9
20260503011158 53 167 1.0 2.0 0.00 0.00 0.00 64 1014.9
20260503010419 53 167 0.0 2.0 0.00 0.00 0.00 63 1014.9
20260503010207 53 167 1.0 3.0 0.00 0.00 0.00 62 1014.9
20260503005709 53 167 1.0 3.0 0.00 0.00 0.00 61 1015.0
20260503004919 53 167 2.0 4.0 0.00 0.00 0.00 61 1014.9
20260503004703 53 167 2.0 4.0 0.00 0.00 0.00 61 1014.9
20260503003950 53 167 2.0 5.0 0.00 0.00 0.00 62 1015.1
20260503003941 53 167 2.0 3.0 0.00 0.00 0.00 61 1015.1
20260503002919 52 167 1.0 5.0 0.00 0.00 0.00 62 1015.2
20260503002709 51 170 2.0 5.0 0.00 0.00 0.00 64 1015.1
20260503002208 51 172 2.0 5.0 0.00 0.00 0.00 66 1015.2
20260503001418 50 172 3.0 4.0 0.00 0.00 0.00 68 1015.2
20260503000918 50 173 2.0 3.0 0.00 0.00 0.00 71 1015.2
20260503000418 50 173 2.0 3.0 0.00 0.00 0.00 72 1015.3
20260502235917 50 174 1.0 2.0 0.00 0.00 0.00 73 1015.4
20260502235417 50 174 1.0 2.0 0.00 0.00 0.00 73 1015.5
20260502234918 50 174 0.0 2.0 0.00 0.00 0.00 72 1015.5
20260502234417 50 174 1.0 1.0 0.00 0.00 0.00 72 1015.5
20260502233918 51 174 0.0 0.0 0.00 0.00 0.00 72 1015.5
20260502233417 51 174 0.0 0.0 0.00 0.00 0.00 71 1015.6
20260502233201 51 174 0.0 0.0 0.00 0.00 0.00 71 1015.6
20260502232704 51 174 0.0 0.0 0.00 0.00 0.00 71 1015.7
20260502231916 52 174 0.0 0.0 0.00 0.00 0.00 71 1015.8
20260502231418 52 174 0.0 1.0 0.00 0.00 0.00 71 1015.8
20260502230918 52 174 0.0 4.0 0.00 0.00 0.00 71 1015.8
20260502230417 52 174 1.0 4.0 0.00 0.00 0.00 71 1015.9
20260502225935 52 174 3.0 4.0 0.00 0.00 0.00 71 1015.7
20260502225418 52 280 2.0 3.0 0.00 0.00 0.00 71 1015.9
20260502224918 53 280 1.0 2.0 0.00 0.00 0.00 71 1015.9
20260502224419 53 280 0.0 3.0 0.00 0.00 0.00 70 1016.0
20260502223917 53 280 2.0 9.0 0.00 0.00 0.00 70 1016.2
20260502223418 53 270 7.0 9.0 0.00 0.00 0.00 69 1016.4
20260502222916 53 158 0.0 1.0 0.00 0.00 0.00 68 1016.2
20260502222415 53 158 1.0 2.0 0.00 0.00 0.00 68 1016.2
20260502221915 54 158 2.0 2.0 0.00 0.00 0.00 68 1016.2
20260502221434 54 158 1.0 2.0 0.00 0.00 0.00 67 1016.1
20260502220914 54 158 1.0 2.0 0.00 0.00 0.00 67 1016.2
20260502220414 55 158 1.0 2.0 0.00 0.00 0.00 66 1016.1
20260502215916 55 158 1.0 2.0 0.00 0.00 0.00 66 1016.2
20260502215415 55 158 1.0 2.0 0.00 0.00 0.00 65 1016.3
20260502214915 55 158 1.0 2.0 0.00 0.00 0.00 65 1016.2
20260502214413 55 158 1.0 2.0 0.00 0.00 0.00 65 1016.3
20260502213914 55 158 1.0 2.0 0.00 0.00 0.00 64 1016.3
20260502213415 56 158 1.0 2.0 0.00 0.00 0.00 64 1016.3
20260502212914 56 158 0.0 2.0 0.00 0.00 0.00 64 1016.5
20260502212416 56 158 1.0 2.0 0.00 0.00 0.00 63 1016.4
20260502211915 56 158 1.0 2.0 0.00 0.00 0.00 63 1016.5
20260502211417 57 158 1.0 2.0 0.00 0.00 0.00 62 1016.5
20260502210914 57 158 0.0 3.0 0.00 0.00 0.00 62 1016.6
20260502210416 57 158 1.0 3.0 0.00 0.00 0.00 62 1016.6
20260502205914 57 158 2.0 2.0 0.00 0.00 0.00 61 1016.6
20260502205414 58 158 0.0 2.0 0.00 0.00 0.00 61 1016.6
20260502204913 58 158 1.0 3.0 0.00 0.00 0.00 61 1016.7
20260502204412 58 158 2.0 3.0 0.00 0.00 0.00 60 1016.7
20260502203950 59 158 0.0 2.0 0.00 0.00 0.00 60 1016.8
20260502203941 58 158 1.0 2.0 0.00 0.00 0.00 60 1016.7
20260502202915 59 158 1.0 2.0 0.00 0.00 0.00 58 1016.8
20260502202704 60 158 1.0 3.0 0.00 0.00 0.00 58 1016.8
20260502202243 60 158 2.0 2.0 0.00 0.00 0.00 57 1016.8
20260502201943 60 158 1.0 3.0 0.00 0.00 0.00 58 1016.7
20260502200912 61 158 0.0 2.0 0.00 0.00 0.00 56 1016.8
20260502200653 61 158 1.0 3.0 0.00 0.00 0.00 55 1016.8
20260502195911 62 158 1.0 3.0 0.00 0.00 0.00 54 1016.8
20260502195412 62 158 1.0 3.0 0.00 0.00 0.00 53 1016.8
20260502194913 63 158 1.0 3.0 0.00 0.00 0.00 52 1016.8
20260502194412 63 158 1.0 3.0 0.00 0.00 0.00 51 1016.8
20260502193911 64 158 2.0 3.0 0.00 0.00 0.00 50 1016.9
20260502193411 64 158 2.0 3.0 0.00 0.00 0.00 50 1016.9
20260502192912 65 158 0.0 3.0 0.00 0.00 0.00 50 1017.0
20260502192412 65 158 2.0 3.0 0.00 0.00 0.00 48 1016.8
20260502191912 66 158 1.0 3.0 0.00 0.00 0.00 48 1016.8
20260502191412 66 158 0.0 3.0 0.00 0.00 0.00 47 1016.9
20260502190912 67 158 1.0 3.0 0.00 0.00 0.00 47 1016.9
20260502190650 67 158 0.0 3.0 0.00 0.00 0.00 46 1016.8
20260502190150 67 158 2.0 3.0 0.00 0.00 0.00 45 1016.8
20260502185407 68 158 1.0 3.0 0.00 0.00 0.00 45 1016.9
20260502184907 68 158 1.0 4.0 0.00 0.00 0.00 44 1016.8
20260502184406 68 156 2.0 5.0 0.00 0.00 0.00 44 1016.8
20260502183903 68 156 2.0 5.0 0.00 0.00 0.00 42 1016.7
20260502183406 68 153 2.0 4.0 0.00 0.00 0.00 42 1016.7
20260502182904 69 152 2.0 6.0 0.00 0.00 0.00 41 1016.7
20260502182507 69 135 2.0 6.0 0.00 0.00 0.00 41 1016.6
20260502181903 70 235 2.0 3.0 0.00 0.00 0.00 41 1016.5
20260502181403 71 235 2.0 3.0 0.00 0.00 0.00 40 1016.5
20260502180905 71 235 2.0 4.0 0.00 0.00 0.00 37 1016.5
20260502180403 72 235 3.0 4.0 0.00 0.00 0.00 37 1016.5
20260502170405 76 220 3.0 9.0 0.00 0.00 0.00 32 1016.6
20260502164343 77 215 3.0 9.0 0.00 0.00 0.00 31 1016.8
20260502164111 77 204 5.0 10.0 0.00 0.00 0.00 31 1016.9
20260502163618 77 210 9.0 10.0 0.00 0.00 0.00 32 1016.9
20260502162832 77 266 3.0 12.0 0.00 0.00 0.00 32 1017.0
20260502162332 77 218 6.0 12.0 0.00 0.00 0.00 32 1017.0
20260502161832 77 235 7.0 9.0 0.00 0.00 0.00 33 1017.0
20260502161331 77 204 5.0 9.0 0.00 0.00 0.00 33 1017.1
20260502160834 77 238 4.0 7.0 0.00 0.00 0.00 33 1017.1
20260502160333 77 213 2.0 5.0 0.00 0.00 0.00 32 1017.2
20260502152307 78 234 5.0 7.0 0.00 0.00 0.00 32 1017.8
20260502151809 78 294 4.0 7.0 0.00 0.00 0.00 31 1017.8
20260502151550 78 245 5.0 7.0 0.00 0.00 0.00 31 1017.9
20260502150807 78 191 3.0 7.0 0.00 0.00 0.00 30 1018.0
20260502150307 78 186 2.0 10.0 0.00 0.00 0.00 30 1018.1
20260502130545 79 204 3.0 9.0 0.00 0.00 0.00 30 1019.7
20260502123806 79 201 4.0 13.0 0.00 0.00 0.00 30 1020.1
20260502123305 78 221 5.0 12.0 0.00 0.00 0.00 31 1020.1
20260502122803 79 206 6.0 12.0 0.00 0.00 0.00 30 1020.2
20260502122306 79 182 5.0 7.0 0.00 0.00 0.00 31 1020.3
20260502121804 78 203 5.0 9.0 0.00 0.00 0.00 31 1020.3
20260502121556 78 135 5.0 12.0 0.00 0.00 0.00 30 1020.3
20260502120805 78 194 6.0 12.0 0.00 0.00 0.00 30 1020.4
20260502120549 78 160 3.0 9.0 0.00 0.00 0.00 30 1020.5
20260502115804 78 198 4.0 11.0 0.00 0.00 0.00 31 1020.6
20260502115306 78 193 8.0 11.0 0.00 0.00 0.00 30 1020.6
20260502114804 78 126 6.0 10.0 0.00 0.00 0.00 30 1020.7
20260502114305 79 208 5.0 12.0 0.00 0.00 0.00 30 1020.7
20260502113805 79 197 7.0 12.0 0.00 0.00 0.00 31 1020.8
20260502113305 78 237 2.0 5.0 0.00 0.00 0.00 31 1020.9
20260502112805 78 165 2.0 11.0 0.00 0.00 0.00 31 1021.0
20260502112305 78 146 5.0 11.0 0.00 0.00 0.00 31 1021.0
20260502112051 78 143 4.0 10.0 0.00 0.00 0.00 32 1021.1
20260502111303 78 225 3.0 13.0 0.00 0.00 0.00 31 1021.2
20260502110802 78 201 10.0 13.0 0.00 0.00 0.00 31 1021.3
20260502110303 78 213 5.0 11.0 0.00 0.00 0.00 31 1021.3
20260502105803 77 235 5.0 11.0 0.00 0.00 0.00 31 1021.4
20260502105305 78 224 4.0 9.0 0.00 0.00 0.00 32 1021.3
20260502104804 77 159 3.0 10.0 0.00 0.00 0.00 32 1021.5
20260502104303 77 148 5.0 13.0 0.00 0.00 0.00 32 1021.6
20260502103800 78 241 7.0 14.0 0.00 0.00 0.00 31 1021.6
20260502103302 78 201 8.0 14.0 0.00 0.00 0.00 33 1021.6
20260502102800 77 193 2.0 6.0 0.00 0.00 0.00 35 1021.7
20260502102301 77 191 5.0 9.0 0.00 0.00 0.00 34 1021.8
20260502101802 76 215 3.0 16.0 0.00 0.00 0.00 32 1021.8
20260502101301 77 167 10.0 16.0 0.00 0.00 0.00 32 1022.0
20260502100802 77 135 4.0 10.0 0.00 0.00 0.00 33 1022.0
20260502100302 77 320 3.0 6.0 0.00 0.00 0.00 33 1021.9
20260502091302 76 207 6.0 11.0 0.00 0.00 0.00 35 1022.7
20260502090800 75 163 2.0 9.0 0.00 0.00 0.00 35 1022.6
20260502090540 74 194 6.0 9.0 0.00 0.00 0.00 33 1022.7
20260502071234 69 151 2.0 5.0 0.00 0.00 0.00 49 1023.3
20260502070733 69 163 3.0 7.0 0.00 0.00 0.00 50 1023.4
20260502070234 68 166 5.0 7.0 0.00 0.00 0.00 52 1023.3
20260502065816 67 156 2.0 4.0 0.00 0.00 0.00 53 1023.4
20260502065800 68 156 1.0 4.0 0.00 0.00 0.00 51 1023.3
20260502064734 66 152 3.0 4.0 0.00 0.00 0.00 54 1023.3
20260502064234 65 155 2.0 5.0 0.00 0.00 0.00 53 1023.4
20260502063732 65 151 3.0 5.0 0.00 0.00 0.00 54 1023.5
20260502063232 64 159 3.0 5.0 0.00 0.00 0.00 56 1023.5
20260502062734 64 152 4.0 5.0 0.00 0.00 0.00 56 1023.4
20260502062234 63 155 3.0 4.0 0.00 0.00 0.00 57 1023.5
20260502061733 63 155 3.0 4.0 0.00 0.00 0.00 57 1023.6
20260502061232 62 30 3.0 3.0 0.00 0.00 0.00 63 1023.5
20260502060733 61 10 1.0 1.0 0.00 0.00 0.00 63 1023.4
20260502060232 59 12 0.0 0.0 0.00 0.00 0.00 65 1023.4
20260502055732 59 12 0.0 0.0 0.00 0.00 0.00 65 1023.5
20260502055232 58 12 0.0 0.0 0.00 0.00 0.00 68 1023.5
20260502054826 54 12 0.0 1.0 0.00 0.00 0.00 73 1023.4
20260502054804 56 12 0.0 0.0 0.00 0.00 0.00 69 1023.5
20260502053733 52 12 0.0 1.0 0.00 0.00 0.00 77 1023.5
20260502053232 50 12 0.0 0.0 0.00 0.00 0.00 78 1023.5
20260502052735 49 12 0.0 0.0 0.00 0.00 0.00 81 1023.5
20260502052232 47 12 0.0 1.0 0.00 0.00 0.00 81 1023.4
20260502051731 46 12 0.0 1.0 0.00 0.00 0.00 82 1023.4
20260502051232 45 10 0.0 0.0 0.00 0.00 0.00 82 1023.4
20260502050731 44 10 0.0 0.0 0.00 0.00 0.00 82 1023.4
20260502050233 44 10 0.0 0.0 0.00 0.00 0.00 82 1023.4
20260502050049 43 10 0.0 0.0 0.00 0.00 0.00 82 1023.5
20260502050045 43 10 0.0 0.0 0.00 0.00 0.00 82 1023.5
20260502045012 42 10 0.0 0.0 0.00 0.00 0.00 81 1023.4
20260502044232 42 10 0.0 0.0 0.00 0.00 0.00 81 1023.4
20260502043706 42 10 0.0 0.0 0.00 0.00 0.00 81 1023.5
20260502043205 42 10 0.0 0.0 0.00 0.00 0.00 81 1023.4
20260502042704 41 10 0.0 0.0 0.00 0.00 0.00 81 1023.4
20260502042204 41 10 0.0 0.0 0.00 0.00 0.00 80 1023.3
20260502041703 41 10 0.0 0.0 0.00 0.00 0.00 80 1023.3
20260502041203 41 10 0.0 0.0 0.00 0.00 0.00 80 1023.3
20260502040946 41 10 0.0 0.0 0.00 0.00 0.00 80 1023.3
20260502040209 41 10 0.0 0.0 0.00 0.00 0.00 80 1023.3
20260502035703 41 10 0.0 0.0 0.00 0.00 0.00 80 1023.3
20260502035204 41 10 0.0 0.0 0.00 0.00 0.00 80 1023.3
20260502034703 41 10 0.0 0.0 0.00 0.00 0.00 80 1023.3
20260502034204 41 10 0.0 0.0 0.00 0.00 0.00 79 1023.4
20260502033949 41 10 0.0 0.0 0.00 0.00 0.00 79 1023.3
20260502033203 41 10 0.0 0.0 0.00 0.00 0.00 80 1023.3
20260502032704 42 10 0.0 0.0 0.00 0.00 0.00 80 1023.4
20260502032204 42 10 0.0 0.0 0.00 0.00 0.00 79 1023.4
20260502031710 42 10 0.0 0.0 0.00 0.00 0.00 79 1023.5
20260502031203 42 10 0.0 0.0 0.00 0.00 0.00 79 1023.5
20260502030704 42 10 0.0 0.0 0.00 0.00 0.00 79 1023.5
20260502030204 42 10 0.0 0.0 0.00 0.00 0.00 79 1023.6
20260502025705 42 10 0.0 0.0 0.00 0.00 0.00 79 1023.5
20260502025205 42 10 0.0 0.0 0.00 0.00 0.00 78 1023.5
20260502024705 42 10 0.0 0.0 0.00 0.00 0.00 78 1023.6
20260502024205 42 10 0.0 0.0 0.00 0.00 0.00 78 1023.6
20260502023705 42 10 0.0 0.0 0.00 0.00 0.00 78 1023.6
20260502023449 42 10 0.0 0.0 0.00 0.00 0.00 78 1023.6